IU7URP-13 Weather Reports


time (UTC)temp
C
wind
direction
speed
KPH
gust
KPH
rain 1hr
cm
rain 24hr
cm
rain mn
cm
humidity
%
barometer
mb
20260505180608 17 0.0 0.0 0.00 0.00 0.00 99 1019.1
20260505175810 17 0.0 0.0 0.00 0.00 0.00 99 1019.1
20260505173808 17 0.0 0.0 0.00 0.00 0.00 99 1019.3
20260505171807 18 0.0 0.0 0.00 0.00 0.00 99 1019.3
20260505165806 18 0.0 0.0 0.00 0.00 0.00 99 1019.1
20260505164420 19 0.0 0.0 0.00 0.00 0.00 99 1019.1
20260505162418 20 0.0 0.0 0.00 0.00 0.00 99 1019.0
20260505160417 20 0.0 0.0 0.00 0.00 0.00 99 1019.0
20260505152414 21 0.0 0.0 0.00 0.00 0.00 99 1019.1
20260505150413 21 0.0 0.0 0.00 0.00 0.00 99 1019.1
20260505140304 22 0.0 0.0 0.00 0.00 0.00 99 1019.3
20260505130300 23 0.0 0.0 0.00 0.00 0.00 46 1019.3
20260505124935 25 0.0 0.0 0.00 0.00 0.00 53 1019.4
20260505122928 24 0.0 0.0 0.00 0.00 0.00 54 1019.6
20260505121627 24 0.0 0.0 0.00 0.00 0.00 62 1019.6
20260505120328 25 0.0 0.0 0.00 0.00 0.00 59 1019.8
20260505120231 25 0.0 0.0 0.00 0.00 0.00 58 1019.8
20260505114230 23 0.0 0.0 0.00 0.00 0.00 70 1019.8
20260505112227 24 0.0 0.0 0.00 0.00 0.00 86 1020.1
20260505110225 23 0.0 0.0 0.00 0.00 0.00 99 1020.1
20260505100742 22 0.0 0.0 0.00 0.00 0.00 99 1020.3
20260505094740 22 0.0 0.0 0.00 0.00 0.00 99 1020.4
20260505092739 21 0.0 0.0 0.00 0.00 0.00 99 1020.6
20260505091439 22 0.0 0.0 0.00 0.00 0.00 99 1020.7
20260505085437 22 0.0 0.0 0.00 0.00 0.00 99 1020.9
20260505083435 22 0.0 0.0 0.00 0.00 0.00 99 1020.9
20260505081434 21 0.0 0.0 0.00 0.00 0.00 99 1020.9
20260505075433 22 0.0 0.0 0.00 0.00 0.00 99 1021.2
20260505073432 21 0.0 0.0 0.00 0.00 0.00 99 1021.3
20260505071430 20 0.0 0.0 0.00 0.00 0.00 99 1021.3
20260505065429 19 0.0 0.0 0.00 0.00 0.00 99 1021.5
20260505064713 20 0.0 0.0 0.00 0.00 0.00 99 1021.5
20260505062712 18 0.0 0.0 0.00 0.00 0.00 99 1021.4
20260505062614 18 0.0 0.0 0.00 0.00 0.00 99 1021.4
20260505060613 18 0.0 0.0 0.00 0.00 0.00 99 1021.4
20260505054611 18 0.0 0.0 0.00 0.00 0.00 99 1021.4
20260505052610 17 0.0 0.0 0.00 0.00 0.00 99 1021.4
20260505050608 16 0.0 0.0 0.00 0.00 0.00 99 1021.4
20260505041239 14 0.0 0.0 0.00 0.00 0.00 99 1021.4
20260505035238 13 0.0 0.0 0.00 0.00 0.00 99 1021.3
20260505033236 13 0.0 0.0 0.00 0.00 0.00 99 1021.4
20260505033126 13 0.0 0.0 0.00 0.00 0.00 99 1021.4
20260505031124 14 0.0 0.0 0.00 0.00 0.00 99 1021.4
20260505025122 13 0.0 0.0 0.00 0.00 0.00 99 1021.3
20260505023053 13 0.0 0.0 0.00 0.00 0.00 99 1021.3
20260505021051 12 0.0 0.0 0.00 0.00 0.00 99 1021.2
20260505015050 13 0.0 0.0 0.00 0.00 0.00 99 1021.2
20260505013049 12 0.0 0.0 0.00 0.00 0.00 99 1021.2
20260505011048 12 0.0 0.0 0.00 0.00 0.00 99 1021.1
20260505005046 12 0.0 0.0 0.00 0.00 0.00 99 1021.1
20260505003045 12 0.0 0.0 0.00 0.00 0.00 99 1021.1
20260505001049 13 0.0 0.0 0.00 0.00 0.00 99 1021.2
20260504235047 14 0.0 0.0 0.00 0.00 0.00 99 1021.2
20260504233046 14 0.0 0.0 0.00 0.00 0.00 99 1021.4
20260504231055 13 0.0 0.0 0.00 0.00 0.00 99 1021.6
20260504225053 13 0.0 0.0 0.00 0.00 0.00 99 1021.8
20260504223052 13 0.0 0.0 0.00 0.00 0.00 99 1021.7
20260504221050 15 0.0 0.0 0.00 0.00 0.00 99 1021.5
20260504215048 16 0.0 0.0 0.00 0.00 0.00 99 1021.4
20260504213046 16 0.0 0.0 0.00 0.00 0.00 99 1021.3
20260504211045 16 0.0 0.0 0.00 0.00 0.00 99 1021.2
20260504205043 16 0.0 0.0 0.00 0.00 0.00 99 1021.2
20260504203042 16 0.0 0.0 0.00 0.00 0.00 99 1021.0
20260504201040 17 0.0 0.0 0.00 0.00 0.00 99 1021.0
20260504195039 18 0.0 0.0 0.00 0.00 0.00 99 1021.0
20260504193036 18 0.0 0.0 0.00 0.00 0.00 99 1020.9
20260504191034 17 0.0 0.0 0.00 0.00 0.00 99 1020.8
20260504185033 17 0.0 0.0 0.00 0.00 0.00 99 1020.6
20260504183029 18 0.0 0.0 0.00 0.00 0.00 99 1020.4